Home   Weather   Reims   Past weeks

Flag for France Past Weather in Reims, Champagne-Ardenne, France — Yesterday and Last 2 Weeks

Now
43 °F

Partly cloudy.


Feels Like: 33 °F
Forecast: 41 / 50 °F
Wind: 23 mph from Southwest

Location: Chalons-Vatry

Current Time: Feb 28, 2017 at 1:54:08 am

Latest Report: Feb 28, 2017 at 1:00 am


Visibility: N/A

Pressure: 29.42 "Hg

Humidity: 81%

Dew Point: 37 °F

Location of ReimsLocation

Past Weather in Reims — Graph

°F

Reims Temperature Yesterday

Maximum temperature yesterday: 55 °F (at 12:30 pm)
Minimum temperature yesterday: 41 °F (at 8:30 pm)
Average temperature yesterday: 49 °F

High & Low Weather Summary for the Past Weeks

 TemperatureHumidityPressure
High61 °F (Feb 15, 2:30 pm)100% (Feb 16, 5:00 pm)30.51 "Hg (Feb 16, 5:00 pm)
Low25 °F (Feb 19, 6:30 am)50% (Feb 25, 3:00 pm)29.42 "Hg (Feb 27, 4:00 pm)
Average44 °F87%30.14 "Hg
* Reported Feb 13 12:00 am — Feb 28 12:30 am, Reims, Weather by CustomWeather, © 2017

Note: Actual official high and low records may vary slightly from our data, if they occured in-between our weather recording intervals... More about our weather records

Advertising

Reims Weather History for the Previous 24 Hours

Scroll right to see more
 ConditionsComfort  
Time TempWeatherWind HumidityBarometerVisibility
12:30 am
Tue, Feb 28
43 °FPassing clouds.23 mph81%29.42 "HgN/A
12:00 am43 °FMostly cloudy.22 mph87%29.42 "HgN/A
11:30 pm
Mon, Feb 27
43 °FMostly cloudy.25 mph87%29.42 "HgN/A
11:00 pm41 °FPassing clouds.25 mph87%29.42 "HgN/A
10:30 pm41 °FClear.23 mph93%29.42 "Hg10 mi
10:00 pm41 °FMostly cloudy.23 mph93%29.42 "HgN/A
9:30 pm41 °FLight rain. Partly cloudy.23 mph93%29.45 "HgN/A
9:00 pm41 °FLight rain. Mostly cloudy.21 mph93%29.45 "HgN/A
8:30 pm41 °FLight rain. Partly cloudy.22 mph93%29.45 "HgN/A
8:00 pm43 °FLight rain. Passing clouds.29 mph87%29.45 "Hg4 mi
7:30 pm45 °FPartly cloudy.22 mph87%29.45 "HgN/A
7:00 pm45 °FRain. Mostly cloudy.22 mph93%29.42 "HgN/A
6:30 pm46 °FBroken clouds.21 mph82%29.42 "HgN/A
6:00 pm46 °FLight rain. Partly sunny.29 mph87%29.42 "HgN/A
5:30 pm50 °FMore clouds than sun.30 mph76%29.42 "HgN/A
5:00 pm52 °FPartly sunny.30 mph77%29.42 "HgN/A
4:30 pm52 °FLight rain. Mostly cloudy.28 mph82%29.42 "HgN/A
4:00 pm52 °FPartly sunny.28 mph82%29.42 "HgN/A
3:30 pm52 °FLight rain. Mostly cloudy.28 mph82%29.45 "HgN/A
3:00 pm52 °FLight rain. Overcast.28 mph77%29.47 "Hg4 mi
2:30 pm54 °FMostly cloudy.30 mph67%29.47 "HgN/A
2:00 pm54 °FMostly cloudy.29 mph63%29.50 "HgN/A
1:30 pm54 °FMore clouds than sun.31 mph63%29.53 "HgN/A
1:00 pm54 °FMostly cloudy.29 mph63%29.56 "HgN/A
12:30 pm55 °FBroken clouds.30 mph63%29.56 "HgN/A
12:00 pm54 °FSunny.29 mph67%29.59 "Hg10 mi
11:30 am54 °FClear.25 mph67%29.62 "HgN/A
11:00 am52 °FOvercast.25 mph72%29.65 "HgN/A
10:30 am52 °FOvercast.22 mph72%29.65 "HgN/A
10:00 am50 °FOvercast.21 mph76%29.68 "HgN/A
9:30 am50 °FOvercast.18 mph82%29.68 "HgN/A
9:00 am48 °FMostly cloudy.18 mph87%29.71 "HgN/A
8:30 am48 °FOvercast.16 mph87%29.71 "HgN/A
8:00 am48 °FDrizzle. Mostly cloudy.18 mph87%29.71 "HgN/A
7:30 am48 °FOvercast.18 mph87%29.74 "HgN/A
7:00 am48 °FMostly cloudy.18 mph87%29.74 "HgN/A
6:30 am48 °FOvercast.18 mph87%29.74 "HgN/A
6:00 am48 °FMostly cloudy.18 mph87%29.77 "HgN/A
5:30 am50 °FMostly cloudy.20 mph82%29.77 "HgN/A
5:00 am50 °FOvercast.17 mph82%29.77 "HgN/A
4:30 am48 °FOvercast.17 mph87%29.80 "HgN/A
4:00 am48 °FMostly cloudy.17 mph87%29.80 "HgN/A
3:30 am50 °FOvercast.18 mph82%29.83 "HgN/A
3:00 am48 °FOvercast.20 mph87%29.83 "HgN/A
2:30 am50 °FMostly cloudy.18 mph88%29.83 "HgN/A
2:00 am50 °FOvercast.20 mph88%29.86 "HgN/A
1:30 am50 °FOvercast.18 mph88%29.86 "HgN/A
1:00 am50 °FMostly cloudy.17 mph88%29.86 "HgN/A
Weather by CustomWeather, © 2017

See weather overviewHow to use our weather pages